Total_Precipitation_Accumulation
1.71 1.81 1.75 1.92 1.96 2.05 2.22 2.52 2.58 2.74 2.76 2.68 2.33 2.03 1.95 1.82 1.68 1.79 1.97 1.85 1.73 1.91 2.30 2.61 2.42 2.12 1.92 1.80 1.63 1.49 1.36 1.33 1.20 0.92 0.83 0.91 0.88 0.82 0.76 0.69 0.63 0.56 0.49
2.24 2.41 2.40 2.40 2.22 2.21 2.44 2.67 2.82 3.25 3.15 3.02 2.54 2.28 2.06 1.98 1.79 1.71 1.92 2.08 1.74 1.66 1.89 2.37 2.63 2.47 2.24 2.08 1.91 1.71 1.55 1.44 1.35 1.02 0.81 0.84 0.90 0.87 0.83 0.77 0.66 0.55 0.45
2.55 2.70 2.66 2.55 2.54 2.53 2.67 2.84 3.02 3.13 2.90 2.78 2.63 2.45 2.21 2.03 1.77 1.70 1.79 1.97 1.82 1.67 1.76 1.99 2.35 2.49 2.42 2.35 2.26 2.04 1.71 1.51 1.31 1.08 0.82 0.75 0.78 0.81 0.80 0.81 0.71 0.56 0.41
2.73 2.97 2.79 2.66 2.94 2.81 2.93 3.26 3.26 3.23 3.11 2.94 2.78 2.55 2.34 2.12 1.72 1.61 1.59 1.79 2.06 1.80 1.79 1.96 2.10 2.18 2.43 2.61 2.60 2.46 2.16 1.77 1.39 1.17 0.96 0.90 0.90 0.87 0.83 0.77 0.72 0.56 0.39
2.62 2.85 2.72 2.74 2.85 3.11 3.15 2.94 3.37 3.35 3.25 3.11 2.62 2.38 2.10 1.88 1.67 1.50 1.52 1.57 1.81 1.69 1.65 1.75 1.85 1.95 2.37 2.91 3.09 3.01 2.81 2.44 1.93 1.61 1.56 1.51 1.45 1.27 1.05 0.88 0.73 0.59 0.43
2.50 2.86 2.67 2.61 2.74 3.01 2.98 2.99 3.27 3.25 3.01 3.03 2.49 2.12 1.94 1.61 1.57 1.57 1.40 1.43 1.48 1.28 1.36 1.58 1.99 1.72 1.85 2.21 2.66 3.04 3.19 3.15 2.78 2.67 2.73 2.50 2.30 1.89 1.37 1.07 0.85 0.71 0.57
2.35 2.71 2.49 2.70 2.67 2.72 2.71 2.76 3.01 3.07 2.81 2.90 2.78 2.30 1.77 1.40 1.36 1.37 1.39 1.42 1.29 1.34 1.63 1.86 2.03 2.03 1.86 1.68 1.80 2.28 2.95 3.35 3.16 2.96 3.11 3.18 3.09 2.50 1.76 1.34 1.03 0.82 0.70
2.18 2.32 2.45 2.35 2.43 2.51 2.50 2.55 2.78 2.71 2.40 2.57 2.69 2.64 2.03 1.68 1.33 1.05 1.31 1.36 1.30 1.48 1.58 1.61 1.88 2.14 2.12 2.23 1.75 1.59 2.18 2.88 3.19 3.06 2.94 3.16 3.22 2.65 1.99 1.72 1.37 1.04 0.89
2.00 2.06 2.16 2.18 2.22 2.13 2.24 2.41 2.39 2.38 2.23 2.21 2.39 2.61 2.26 1.84 1.49 1.10 0.98 1.08 1.27 1.42 1.46 1.59 1.58 1.72 1.80 2.16 2.13 1.78 1.66 1.93 2.58 3.18 3.20 3.08 2.98 2.56 2.16 1.98 1.76 1.39 1.17
1.75 1.76 1.77 1.79 1.86 1.90 2.09 1.93 1.96 2.15 2.20 2.07 2.14 2.15 2.09 2.08 1.93 1.40 1.05 1.00 1.21 1.29 1.28 1.24 1.34 1.53 1.63 1.81 1.93 1.81 1.63 1.53 1.85 2.51 3.00 3.06 2.84 2.38 2.13 2.14 2.27 2.03 1.56
1.64 1.56 1.60 1.59 1.58 1.61 1.73 1.75 1.97 1.98 2.02 1.99 1.94 1.93 2.01 2.01 1.87 1.67 1.33 1.21 1.19 1.05 1.08 1.14 1.25 1.45 1.62 1.73 1.88 1.70 1.69 1.54 1.59 1.77 2.17 2.52 2.62 2.51 2.25 2.25 2.62 2.72 2.36
1.45 1.45 1.45 1.44 1.42 1.47 1.60 1.64 1.69 1.69 1.75 1.79 1.74 1.73 1.84 1.77 1.68 1.76 1.51 1.38 1.33 1.09 1.11 1.15 1.18 1.30 1.38 1.48 1.39 1.48 1.46 1.33 1.31 1.31 1.36 1.65 1.96 2.12 2.16 2.28 2.61 2.84 2.83
1.20 1.18 1.26 1.30 1.28 1.32 1.44 1.50 1.46 1.49 1.55 1.59 1.55 1.60 1.68 1.62 1.61 1.75 1.79 1.62 1.50 1.25 1.26 1.24 1.15 1.23 1.19 1.40 1.36 1.22 1.05 0.97 0.90 0.88 0.93 1.07 1.25 1.45 1.63 1.89 2.26 2.58 2.73
1.09 1.08 1.12 1.14 1.17 1.19 1.23 1.40 1.43 1.43 1.49 1.52 1.48 1.68 1.65 1.50 1.52 1.65 1.82 1.97 1.87 1.57 1.50 1.39 1.20 1.10 1.17 1.24 1.17 0.98 0.79 0.72 0.68 0.66 0.64 0.72 0.86 0.98 1.11 1.31 1.59 1.82 2.01
1.28 1.25 1.20 1.18 1.22 1.29 1.35 1.45 1.51 1.50 1.56 1.59 1.65 1.75 1.65 1.50 1.47 1.54 1.81 2.01 2.14 1.93 1.68 1.48 1.35 1.08 1.09 1.04 1.00 0.91 0.89 0.72 0.56 0.53 0.52 0.50 0.54 0.64 0.74 0.83 0.96 1.12 1.24
1.40 1.39 1.36 1.29 1.25 1.29 1.40 1.50 1.56 1.56 1.60 1.67 1.70 1.78 1.81 1.69 1.68 1.70 1.83 2.00 2.13 2.17 1.85 1.54 1.50 1.24 1.12 0.94 0.91 0.86 0.79 0.73 0.56 0.47 0.47 0.44 0.44 0.47 0.51 0.58 0.66 0.74 0.84
1.30 1.26 1.21 1.17 1.14 1.14 1.17 1.22 1.23 1.27 1.32 1.39 1.40 1.51 1.66 1.80 1.80 1.80 1.85 1.90 2.02 2.18 1.94 1.82 1.91 1.77 1.53 1.28 1.08 0.94 0.78 0.75 0.65 0.53 0.44 0.44 0.44 0.45 0.46 0.51 0.53 0.59 0.66
1.03 0.97 0.97 0.97 0.91 0.87 0.89 0.89 0.91 1.02 1.12 1.20 1.27 1.33 1.32 1.40 1.50 1.56 1.67 1.81 1.92 2.12 2.05 2.08 2.23 2.20 1.93 1.57 1.39 1.22 0.93 0.80 0.72 0.64 0.49 0.40 0.42 0.45 0.45 0.49 0.51 0.54 0.57
0.76 0.76 0.80 0.84 0.81 0.78 0.78 0.79 0.85 0.93 1.00 1.05 1.10 1.10 1.05 1.08 1.15 1.27 1.33 1.49 1.67 1.94 2.06 2.18 2.37 2.33 2.09 1.83 1.67 1.39 1.17 1.09 0.87 0.77 0.64 0.49 0.41 0.42 0.46 0.48 0.53 0.58 0.59
0.66 0.69 0.73 0.76 0.77 0.80 0.85 0.94 1.00 1.01 0.99 0.94 0.88 0.84 0.84 0.92 0.99 1.10 1.20 1.26 1.41 1.64 1.81 2.01 2.26 2.30 2.16 2.04 1.95 1.64 1.43 1.33 1.15 0.94 0.85 0.63 0.52 0.46 0.46 0.48 0.52 0.59 0.67
0.60 0.67 0.77 0.82 0.85 0.85 0.79 0.88 0.96 0.96 0.97 0.91 0.81 0.70 0.65 0.71 0.78 0.87 0.91 1.08 1.24 1.43 1.56 1.75 2.02 2.26 2.11 2.01 1.90 1.79 1.62 1.56 1.46 1.27 1.21 0.93 0.74 0.60 0.48 0.47 0.51 0.60 0.75
0.69 0.72 0.71 0.74 0.73 0.60 0.63 0.72 0.80 0.85 0.87 0.86 0.80 0.70 0.59 0.58 0.62 0.70 0.79 0.86 0.98 1.15 1.33 1.59 1.82 2.01 1.92 1.85 1.94 1.98 1.93 1.73 1.67 1.56 1.62 1.52 1.28 1.11 0.84 0.59 0.50 0.53 0.67
0.72 0.77 0.72 0.69 0.68 0.67 0.69 0.69 0.68 0.74 0.80 0.76 0.78 0.79 0.65 0.52 0.60 0.64 0.69 0.68 0.75 0.86 1.00 1.25 1.48 1.65 1.82 1.82 2.01 2.14 2.24 2.14 2.01 1.90 2.01 2.08 1.94 1.76 1.17 0.92 0.82 0.66 0.62
0.78 0.79 0.79 0.74 0.77 0.74 0.65 0.61 0.64 0.67 0.74 0.74 0.72 0.73 0.75 0.75 0.69 0.65 0.71 0.72 0.64 0.66 0.74 0.80 1.01 1.33 1.84 2.10 2.08 2.16 2.37 2.39 2.24 2.16 2.20 2.35 2.18 2.09 1.65 1.20 0.94 0.68 0.60
0.83 0.80 0.79 0.75 0.74 0.73 0.60 0.50 0.51 0.55 0.64 0.69 0.69 0.65 0.63 0.68 0.68 0.59 0.65 0.68 0.67 0.66 0.67 0.75 0.88 1.12 1.40 1.71 1.90 1.96 2.07 2.21 2.35 2.33 2.28 2.37 2.32 2.20 2.19 1.87 1.29 0.89 0.62
0.90 0.85 0.80 0.76 0.73 0.75 0.63 0.46 0.45 0.51 0.60 0.65 0.71 0.67 0.56 0.51 0.51 0.50 0.59 0.68 0.67 0.66 0.70 0.73 0.75 0.86 1.04 1.23 1.30 1.31 1.42 1.55 1.76 1.94 1.89 2.05 2.29 2.33 2.50 2.49 1.99 1.40 1.00